Probability
0 0 0 0 0 0 0 0 0 0 0 0 0 0 0 0 0 0 0 0 0 0 0 1 5 10 14 16 17 18 19 19 16 13 11 9 6 2 0 0 0 0 0 0
0 0 0 0 0 0 0 0 0 0 0 0 0 0 0 0 0 0 0 0 0 0 0 1 4 8 12 15 16 16 17 17 14 12 10 9 6 3 1 0 0 0 0 0
0 0 0 0 0 0 0 0 0 0 0 0 0 0 0 0 0 0 0 0 0 0 0 0 2 5 10 12 13 15 16 14 11 10 9 8 6 3 1 0 0 0 0 0
0 0 0 0 0 0 0 0 0 0 0 0 0 0 0 0 0 0 0 0 0 0 0 0 1 4 8 12 13 16 18 15 11 9 8 7 6 3 1 0 0 0 0 0
0 0 0 0 0 0 0 0 0 0 0 0 0 0 0 0 0 0 0 0 0 0 0 0 0 2 7 13 15 17 19 18 15 10 6 5 4 3 2 1 0 0 0 0
0 0 0 0 0 0 0 0 0 0 0 0 0 0 0 0 0 0 0 0 0 0 0 0 0 1 5 11 15 17 17 18 16 11 5 2 2 2 2 1 0 0 0 0
0 0 0 0 0 0 0 0 0 0 0 0 0 0 0 0 0 0 0 0 0 0 0 0 0 0 2 6 11 14 14 15 15 13 7 3 1 1 1 1 0 0 0 0
0 0 0 0 0 0 0 0 0 0 0 0 0 0 0 0 0 0 0 0 0 0 0 0 0 0 1 3 6 9 10 11 13 12 10 6 2 0 0 0 0 0 0 0
0 0 0 0 0 0 0 0 0 0 0 0 0 0 0 0 0 0 0 0 0 0 0 0 0 0 0 1 3 4 6 8 10 12 12 9 4 1 0 0 0 0 0 0
0 0 0 0 0 0 0 0 0 0 0 0 0 0 0 0 0 0 0 0 0 0 0 0 0 0 0 0 0 1 3 5 8 10 11 8 5 2 1 0 0 0 0 0
0 0 0 0 0 0 0 0 0 0 0 0 0 0 0 0 0 0 0 0 0 0 0 0 0 0 0 0 0 1 1 3 7 11 12 9 6 4 2 1 0 0 0 0
0 0 0 0 0 0 0 0 0 0 0 0 0 0 0 0 0 0 0 0 0 0 0 0 0 0 0 0 1 1 1 1 7 13 15 12 9 6 3 1 0 0 0 0
0 0 0 0 0 0 0 0 0 0 0 0 0 0 0 0 0 0 0 0 0 0 0 0 0 0 0 0 1 1 1 1 6 13 15 14 12 8 5 2 0 0 0 0
0 0 0 0 0 0 0 0 0 0 0 0 0 0 0 0 0 0 0 0 0 0 0 0 0 0 0 0 0 0 0 1 4 8 12 13 13 10 6 3 1 0 0 0
0 0 0 0 0 0 0 0 0 0 0 0 0 0 0 0 0 0 0 0 0 0 0 0 0 0 0 0 0 0 0 0 1 4 7 10 11 10 8 4 1 0 0 0
0 0 0 0 0 0 0 0 0 0 0 0 0 0 0 0 0 0 0 0 0 0 0 0 0 0 0 0 0 0 0 0 0 1 3 6 9 10 9 6 2 0 0 0
0 0 0 0 0 0 0 0 0 0 0 0 0 0 0 0 0 0 0 0 0 0 0 0 0 0 0 0 0 0 0 0 0 0 1 4 7 9 9 6 2 0 0 0
0 0 0 0 0 0 0 0 0 0 0 0 0 0 0 0 0 0 0 0 0 0 0 0 0 0 0 0 0 0 0 0 0 0 0 2 5 7 7 4 1 1 1 1
0 0 0 0 0 0 0 0 0 0 0 0 0 0 0 0 0 0 0 0 0 0 0 0 0 0 0 0 0 0 1 1 0 0 0 0 2 4 5 3 1 1 2 2
0 0 0 0 0 0 0 0 0 0 0 0 0 0 0 0 0 0 0 0 0 0 0 0 0 0 0 0 0 0 1 1 0 0 0 0 1 2 3 3 2 1 1 2
0 0 0 0 0 0 0 0 0 0 0 0 0 0 0 0 0 0 0 0 0 0 0 0 0 0 0 0 0 0 1 1 0 0 0 0 1 1 2 3 3 1 0 1
0 0 0 0 0 0 0 0 0 0 0 0 0 0 0 0 0 0 0 0 0 0 0 0 0 0 0 1 1 1 0 0 0 0 0 0 0 1 2 3 3 1 0 0
0 0 0 0 0 0 0 0 0 0 0 0 0 0 0 0 0 0 0 0 0 0 0 0 0 0 1 2 2 1 0 0 0 0 0 0 0 1 2 3 3 2 1 0
0 0 0 0 0 0 0 0 0 0 0 0 0 0 0 0 0 0 0 0 0 0 0 0 0 1 2 2 2 1 0 0 0 0 0 0 0 1 2 3 3 2 1 0
0 0 0 0 0 0 0 0 0 0 0 0 0 0 0 0 0 0 0 0 0 0 0 0 0 1 1 1 1 1 0 0 0 0 0 0 0 0 1 2 2 1 0 0
0 0 0 0 0 0 0 0 0 0 0 0 0 0 0 0 0 0 0 0 0 0 0 0 0 1 0 0 0 0 0 0 0 0 0 0 0 0 0 1 1 0 0 0
Wind_Speed
2 2 7 8 10 10 8 9 12 11 8 8 13 16 14 10 10 10 10 9 10 12 11 9 10 10 11 12 14 15 15 15 13 11 11 11 11 10 8 8 10 12 11 11
1 8 11 7 7 9 11 13 14 11 8 8 11 16 14 12 12 12 12 11 11 11 9 8 9 10 12 14 15 16 16 16 16 12 11 9 8 8 8 7 9 12 12 12
8 6 5 6 8 9 11 12 11 11 10 8 10 12 11 9 11 12 11 10 10 11 11 9 9 11 12 13 16 16 17 17 17 14 9 8 7 6 7 10 10 11 13 13
7 6 6 7 9 8 11 8 11 11 8 6 4 8 7 7 9 10 10 10 10 10 10 9 9 10 12 14 14 16 17 17 17 16 14 15 13 12 12 10 9 10 12 13
6 4 5 9 9 8 7 5 7 8 7 7 5 7 9 5 9 10 9 10 10 10 9 10 10 11 12 12 12 13 16 17 17 17 17 17 14 11 7 8 11 11 11 12
8 5 5 6 6 7 5 3 5 3 3 8 8 8 9 6 9 8 7 7 8 8 8 9 9 8 9 10 10 11 14 17 18 19 18 18 16 13 12 12 13 12 9 10
6 5 5 3 3 3 2 1 2 2 3 8 5 8 11 7 7 7 7 6 5 5 5 5 5 6 8 10 11 11 14 16 17 19 19 19 18 17 17 15 14 12 10 10
4 7 4 3 5 4 5 6 5 5 5 4 3 9 8 7 6 6 5 4 3 4 4 5 5 6 8 10 12 12 14 15 16 18 19 18 17 13 12 14 12 13 12 12
4 7 4 4 4 4 4 5 4 3 3 4 6 7 8 4 4 4 4 3 4 4 4 4 4 5 6 8 11 13 14 14 15 18 18 17 17 15 14 14 13 11 9 9
4 7 6 5 3 4 4 3 2 3 4 6 6 6 5 3 4 4 4 5 6 6 5 5 4 5 5 6 9 10 12 15 15 16 17 14 17 17 14 12 14 13 12 12
4 5 6 3 4 5 3 3 3 3 3 3 5 6 3 2 1 3 5 5 6 6 5 5 5 5 5 5 5 8 10 11 12 14 15 15 15 15 14 13 14 14 12 13
4 4 6 8 6 3 4 5 5 4 5 4 5 9 3 1 2 4 6 7 7 7 6 5 5 5 4 4 4 6 7 10 12 13 13 15 14 14 15 14 14 13 14 13
3 4 4 6 3 1 3 5 6 4 3 5 6 10 3 5 7 8 8 9 8 7 7 6 4 4 4 4 4 5 6 8 9 10 12 13 13 14 15 14 13 13 13 13
6 5 7 8 7 4 6 7 6 6 6 8 11 13 12 11 11 11 10 9 8 7 7 6 5 5 5 4 4 4 5 6 7 9 11 13 14 14 14 13 13 14 14 14
3 6 8 12 11 9 11 13 11 12 11 11 12 13 15 12 10 10 9 9 9 8 7 6 6 6 5 5 4 4 4 4 5 8 10 11 12 12 11 12 12 12 13 14
3 5 6 10 11 12 15 15 14 15 14 14 15 16 11 10 8 9 9 8 9 8 8 7 6 6 6 5 5 4 4 4 5 7 9 8 9 10 11 12 11 12 12 12
4 5 5 9 7 7 13 13 13 11 9 9 13 13 8 9 10 10 9 8 8 8 8 8 7 6 6 6 6 5 4 4 4 6 6 8 9 10 10 11 12 12 12 12
8 7 5 6 3 10 9 4 7 9 9 8 8 8 8 10 11 10 7 7 8 8 8 8 7 6 6 6 5 5 3 4 5 5 6 8 9 10 9 10 11 12 11 11
11 8 5 4 6 10 8 4 4 6 8 7 9 10 9 9 8 8 6 7 8 8 8 7 7 6 6 6 5 4 3 4 5 6 7 8 9 10 11 11 11 9 10 10
7 8 6 5 6 8 6 4 3 3 6 5 6 8 8 6 5 8 8 8 9 7 6 6 5 5 5 5 4 3 3 4 6 6 6 7 8 10 11 11 10 8 8 9
4 6 9 9 8 9 6 3 2 3 7 5 5 7 6 5 8 10 10 9 8 7 7 6 5 4 5 5 3 4 4 5 5 4 5 6 7 8 9 9 8 9 8 9
7 5 6 6 7 9 3 2 4 6 5 4 5 6 7 9 10 10 10 10 9 8 7 5 4 5 5 4 4 4 5 3 2 4 5 6 7 7 7 9 9 9 10 10
8 8 6 8 8 5 3 5 5 4 5 5 5 7 7 9 10 10 10 10 9 8 7 6 5 6 5 4 4 5 4 2 3 4 5 6 6 7 8 10 10 9 9 8
5 3 4 6 9 7 6 6 6 5 7 8 7 8 7 9 10 11 10 10 9 8 7 5 5 5 6 5 4 5 3 2 4 5 6 6 7 7 8 7 8 9 9 9
6 4 5 8 8 7 7 6 7 8 8 8 8 8 8 9 10 10 10 10 9 8 7 5 5 6 7 5 5 4 3 3 4 6 6 6 6 8 8 6 6 7 7 9
6 7 7 9 7 6 7 6 6 8 9 9 9 10 9 8 10 11 10 9 9 9 7 6 6 7 6 5 5 4 4 4 5 6 6 5 5 6 7 7 5 5 6 10
Wind_Direction
196 213 233 231 225 246 271 273 274 274 282 281 264 268 271 264 258 256 252 244 242 243 241 227 216 204 194 191 190 191 189 185 180 181 181 181 184 181 180 180 177 176 175 173
277 245 244 246 250 253 261 268 272 283 278 276 271 272 270 254 245 243 244 243 240 247 250 232 215 203 197 194 192 192 193 188 186 189 188 185 177 178 179 179 180 180 179 178
227 255 252 251 258 260 257 253 261 272 294 277 277 277 254 248 242 242 239 237 235 236 238 233 218 207 201 199 196 195 194 192 190 186 177 168 163 162 177 186 188 187 184 182
252 260 268 267 263 253 270 252 255 269 275 272 244 280 266 245 248 243 240 236 236 236 231 227 221 211 206 205 200 198 195 193 191 184 182 183 185 189 192 186 185 183 186 185
254 253 253 254 251 245 252 261 257 260 256 263 236 254 277 240 248 248 241 235 235 234 228 225 221 215 211 206 201 200 196 195 192 189 188 190 196 195 177 172 177 183 188 189
255 257 241 239 252 245 256 277 277 262 239 253 225 218 270 229 235 250 250 245 240 239 235 230 224 218 213 208 203 199 198 199 194 192 191 194 196 190 178 181 185 187 188 190
294 274 252 229 269 262 203 191 292 284 233 248 213 216 248 242 238 238 246 247 240 239 237 240 235 227 219 211 204 200 200 202 197 195 196 197 197 194 192 188 189 187 187 192
289 289 252 222 219 231 217 185 209 237 236 267 233 233 250 247 251 253 256 258 257 258 252 248 240 230 226 218 208 200 202 204 201 198 200 199 196 195 198 194 190 191 195 195
247 272 286 266 248 205 212 212 209 248 270 260 250 268 287 265 288 286 291 314 301 279 271 267 260 239 233 224 214 204 204 204 204 202 201 200 198 197 197 194 192 192 191 185
208 269 281 285 267 214 205 192 164 207 250 255 264 255 254 272 273 293 313 312 304 299 292 288 278 262 246 234 221 210 207 206 204 203 201 201 200 200 196 191 195 193 188 182
202 244 288 299 229 222 191 193 207 215 222 246 274 266 231 227 268 304 309 312 315 310 299 297 298 282 264 249 232 217 211 209 204 203 202 200 200 198 193 194 196 193 186 183
209 219 263 254 248 224 205 204 183 212 246 233 260 271 283 300 312 324 316 317 318 309 301 296 295 298 284 260 243 229 220 213 206 202 202 201 197 195 194 196 194 189 187 186
206 216 280 312 315 253 234 220 208 214 221 227 238 265 293 336 330 325 320 317 317 317 309 305 302 296 288 268 249 235 228 220 210 200 199 197 194 194 195 194 190 186 186 184
253 222 220 239 251 242 258 252 225 203 226 241 241 264 290 306 313 316 317 314 312 312 310 306 304 295 287 278 257 244 239 223 210 199 197 198 195 195 195 190 186 184 183 182
239 249 243 253 259 255 258 260 245 227 227 237 254 260 274 289 294 298 303 306 310 314 314 306 301 295 286 283 277 260 249 229 209 198 197 200 195 190 188 184 183 181 181 181
220 251 258 263 253 253 260 258 250 245 241 243 258 267 267 277 284 291 297 302 304 305 306 300 295 296 293 281 275 270 256 236 210 200 198 193 186 183 182 181 177 176 177 176
228 234 252 265 271 270 257 244 237 233 224 226 245 257 283 292 292 288 285 292 295 296 297 294 286 281 281 278 271 258 251 240 215 202 192 185 182 180 180 174 173 176 175 172
221 235 247 266 261 246 248 230 228 237 244 237 251 269 273 276 283 277 271 276 284 288 290 290 284 281 278 274 270 262 246 224 211 200 186 181 179 178 172 171 175 176 173 174
211 217 233 239 251 267 279 259 216 223 247 242 252 272 282 290 297 281 272 272 274 275 278 279 273 273 275 272 262 252 245 220 206 199 188 182 178 174 171 172 173 172 169 171
200 207 225 229 244 256 265 272 243 189 259 265 253 270 284 310 300 287 301 298 289 280 278 279 280 282 276 271 254 231 236 220 210 201 191 182 178 175 175 173 168 163 163 166
188 208 222 232 245 262 268 279 115 182 258 284 260 264 271 260 255 280 298 297 292 285 282 282 279 278 273 271 250 230 231 230 218 191 176 172 174 174 169 162 160 156 153 155
197 206 213 211 229 250 243 146 189 236 268 277 272 271 272 273 278 287 294 295 297 294 287 280 277 278 273 262 241 231 234 238 201 169 167 168 167 163 158 155 156 156 154 155
211 205 202 206 226 246 206 215 239 245 265 274 273 278 281 284 287 291 292 293 292 289 287 281 271 279 276 257 238 232 241 215 177 162 164 164 160 160 159 158 157 156 156 157
249 214 215 250 259 260 263 268 273 272 267 274 276 282 289 285 289 292 292 293 293 290 287 287 282 281 280 275 255 239 218 198 179 166 162 161 158 157 157 158 160 160 162 159
225 203 226 250 269 287 273 261 268 277 281 286 291 287 285 287 289 287 288 290 290 291 286 280 273 272 273 274 263 241 198 180 176 166 161 162 162 157 154 154 161 163 169 168
202 201 217 245 246 246 265 272 277 281 285 288 293 295 291 284 287 290 290 289 289 289 286 279 272 271 273 269 260 235 200 182 173 165 164 164 160 152 148 141 120 104 135 146